Location: Newark
(15.4608°S, 41.1635°W)
Time: 10:51:41
(UTC+00:00)

Vanguard 3 - Visible Passes

Search period start: 01 March 2021 00:00
Search period end: 11 March 2021 00:00
Orbit: 508 x 3261 km, 33.3° (Epoch: 28 February)

Date Brightness Start Highest point End Pass type
(mag) Time Alt. Az. Time Alt. Az. Time Alt. Az.
01 Mar 9.3 05:59:50 20° SE 05:59:50 20° SE 06:02:07 10° SE visible
01 Mar 9.4 08:06:01 10° SW 08:10:40 21° S 08:17:24 10° SE visible
02 Mar 8.8 06:54:34 20° SSW 06:55:28 20° S 07:00:27 10° SE visible
03 Mar 9.9 05:44:44 12° SE 05:44:44 12° SE 05:45:13 10° SE visible
03 Mar 9.4 07:50:44 10° SW 07:54:43 18° S 08:00:10 10° SE visible
04 Mar 9.1 06:39:27 16° S 06:39:35 16° S 06:43:14 10° SSE visible
05 Mar 9.4 07:35:29 10° SSW 07:38:47 15° S 07:43:03 10° SE visible
06 Mar 9.5 06:24:21 12° S 06:24:21 12° S 06:25:57 10° SSE visible
07 Mar 9.4 07:20:15 10° SSW 07:22:52 13° SSE 07:26:01 10° SE visible
08 Mar 9.5 08:17:14 10° SSW 08:21:48 21° SSE 08:28:20 10° ESE visible
09 Mar 9.4 07:05:01 10° S 07:06:55 12° SSE 07:09:06 10° SE visible
10 Mar 9.4 08:01:24 10° SSW 08:05:38 21° SSE 08:11:40 10° ESE visible
